Simultaneous Nadir Overpasses (SNOs) Predictions

Prediction of SNOs between AQUA and NOAA-19 Satellite Orbit:

Table of predicted SNOs for the next 14.0 days since TLE Epoch: 1/26/2018
Index Date (AQUA) Time (AQUA) Lat,Lon (AQUA) SZA (AQUA ) Date (NOAA-19) Time (NOAA-19) Lat,Lon (NOAA-19) SZA (NOAA-19 ) Distance(km) Time Diff (sec)
1 01/27/2018 04:07:55 80.89, 78.28 101.67 01/27/2018 04:07:46 80.87, 78.15 101.68 2.66 9
2 01/29/2018 09:41:40 -80.88, 174.88 78.92 01/29/2018 09:41:32 -80.87, 174.77 78.91 2.35 8
3 01/31/2018 15:15:25 80.88, -88.55 100.48 01/31/2018 15:15:06 80.87, -88.67 100.50 2.54 19
4 02/02/2018 20:49:10 -80.88, 8.07 80.16 02/02/2018 20:48:51 -80.87, 8.22 80.17 2.66 19
5 02/02/2018 21:38:37 80.88, 175.67 99.84 02/02/2018 21:39:46 80.88, 175.57 99.82 1.88 69
6 02/05/2018 02:22:55 80.86, 104.88 99.15 02/05/2018 02:22:26 80.87, 104.80 99.19 2.11 29
7 02/05/2018 03:12:22 -80.88, -87.70 80.83 02/05/2018 03:13:31 -80.88, -87.63 80.86 1.35 69
8 02/07/2018 07:56:41 -80.88,-158.82 81.49 02/07/2018 07:56:12 -80.87,-158.87 81.48 1.58 29
9 02/07/2018 08:46:07 80.86, 9.05 98.47 02/07/2018 08:47:06 80.88, 8.99 98.46 2.00 59
10 02/09/2018 13:30:26 80.87, -62.12 97.79 02/09/2018 13:29:47 80.87, -62.19 97.82 1.20 39




NCC Satellite Simultaneous Nadir Overpasses (SNOs) Prediction Service
